DW6276 Weather Reports


time (UTC)temp
C
wind
direction
speed
KPH
gust
KPH
rain 1hr
cm
rain 24hr
cm
rain mn
cm
humidity
%
barometer
mb
20260505181015 8 315 12.9 20.9 0.00 0.00 0.00 42 1011.7
20260505180035 8 293 11.3 19.3 0.00 0.00 0.00 42 1011.7
20260505175015 8 293 14.5 19.3 0.00 0.00 0.00 42 1011.7
20260505174015 8 315 14.5 20.9 0.00 0.00 0.00 42 1011.6
20260505173015 8 338 9.7 19.3 0.00 0.00 0.00 43 1011.6
20260505172015 8 315 11.3 17.7 0.00 0.00 0.00 45 1011.7
20260505171055 7 293 11.3 17.7 0.00 0.00 0.00 45 1011.8
20260505170015 7 293 11.3 16.1 0.00 0.00 0.00 46 1011.6
20260505165015 7 315 6.4 12.9 0.00 0.00 0.00 49 1011.7
20260505164015 7 315 12.9 19.3 0.00 0.00 0.00 49 1011.8
20260505163037 7 315 11.3 16.1 0.00 0.00 0.00 48 1011.7
20260505162017 7 315 11.3 19.3 0.00 0.00 0.00 48 1011.6
20260505161037 8 0 8.0 16.1 0.00 0.00 0.00 46 1011.7
20260505153017 7 338 14.5 25.7 0.00 0.00 0.00 47 1011.6
20260505152017 7 315 9.7 14.5 0.00 0.00 0.00 47 1011.5
20260505151017 7 338 12.9 22.5 0.00 0.00 0.00 44 1011.5
20260505125017 3 0 3.2 6.4 0.00 0.00 0.00 69 1010.6
20260505124017 3 293 1.6 4.8 0.00 0.00 0.00 71 1010.5
20260505123017 2 293 1.6 3.2 0.00 0.00 0.00 74 1010.4
20260505122037 2 293 1.6 3.2 0.00 0.00 0.00 76 1010.2
20260505121017 1 0.0 3.2 0.00 0.00 0.00 80 1010.0
20260505120036 0 0.0 0.0 0.00 0.00 0.00 81 1009.8
20260505115037 0 0.0 3.2 0.00 0.00 0.00 81 1009.4
20260505114017 -1 0.0 3.2 0.00 0.00 0.00 82 1009.2
20260505113016 -1 0.0 3.2 0.00 0.00 0.00 82 1008.9
20260505112017 -2 0.0 3.2 0.00 0.00 0.00 82 1008.7
20260505111017 -2 0.0 1.6 0.00 0.00 0.00 80 1008.6
20260505102036 -1 0.0 0.0 0.00 0.00 0.00 77 1008.4
20260505101017 -1 0.0 0.0 0.00 0.00 0.00 76 1008.4
20260505100016 0 0.0 3.2 0.00 0.00 0.00 76 1008.5
20260505095017 0 0.0 1.6 0.00 0.00 0.00 76 1008.5
20260505094016 0 0.0 1.6 0.00 0.00 0.00 76 1008.5
20260505093016 0 338 1.6 3.2 0.00 0.00 0.00 76 1008.4
20260505092016 0 0.0 3.2 0.00 0.00 0.00 73 1008.3
20260505091056 1 338 1.6 3.2 0.00 0.00 0.00 72 1008.3
20260505090016 1 338 1.6 3.2 0.00 0.00 0.00 71 1008.2
20260505085016 2 315 3.2 8.0 0.00 0.00 0.00 69 1008.1
20260505084016 1 293 3.2 4.8 0.00 0.00 0.00 69 1008.1
20260505083016 1 315 3.2 4.8 0.00 0.00 0.00 70 1007.9
20260505082016 1 0.0 1.6 0.00 0.00 0.00 69 1007.7
20260505081016 2 0.0 1.6 0.00 0.00 0.00 68 1007.6
20260505080016 2 315 1.6 1.6 0.00 0.00 0.00 68 1007.7
20260505075016 2 315 4.8 8.0 0.00 0.00 0.00 68 1007.6
20260505074016 2 315 3.2 4.8 0.00 0.00 0.00 68 1007.4
20260505073016 2 293 1.6 4.8 0.00 0.00 0.00 66 1007.4
20260505072016 2 293 3.2 6.4 0.00 0.00 0.00 65 1007.5
20260505071016 2 293 1.6 3.2 0.00 0.00 0.00 64 1007.6
20260505070016 3 0.0 3.2 0.00 0.00 0.00 63 1007.5
20260505065016 3 270 1.6 3.2 0.00 0.00 0.00 63 1007.6
20260505064016 3 293 1.6 4.8 0.00 0.00 0.00 63 1007.7
20260505063016 3 0.0 3.2 0.00 0.00 0.00 63 1007.6
20260505062016 3 293 3.2 4.8 0.00 0.00 0.00 65 1007.6
20260505061036 3 315 3.2 6.4 0.00 0.00 0.00 64 1007.7
20260505060116 3 315 3.2 4.8 0.00 0.00 0.00 63 1007.7
20260505055016 3 293 3.2 3.2 0.00 0.00 0.00 62 1007.7
20260505054016 3 293 1.6 1.6 0.00 0.00 0.00 61 1007.7
20260505053016 3 293 1.6 3.2 0.00 0.00 0.00 62 1007.6
20260505052016 3 293 1.6 4.8 0.00 0.00 0.00 61 1007.6
20260505051016 3 0.0 0.0 0.00 0.00 0.00 59 1007.4
20260505041017 5 270 1.6 4.8 0.00 0.00 0.00 53 1007.2
20260505040016 5 270 3.2 6.4 0.00 0.00 0.00 53 1007.3
20260505035017 5 293 3.2 4.8 0.00 0.00 0.00 53 1007.2
20260505034016 5 293 1.6 4.8 0.00 0.00 0.00 52 1007.1
20260505033017 5 270 3.2 4.8 0.00 0.00 0.00 53 1007.1
20260505032016 5 270 1.6 3.2 0.00 0.00 0.00 53 1007.1
20260505031016 6 293 3.2 3.2 0.00 0.00 0.00 50 1007.1
20260505030016 6 293 1.6 4.8 0.00 0.00 0.00 48 1007.1
20260505025016 6 293 1.6 3.2 0.00 0.00 0.00 48 1007.2
20260505024036 6 315 3.2 3.2 0.00 0.00 0.00 49 1007.1
20260505023016 7 315 3.2 4.8 0.00 0.00 0.00 46 1007.0
20260505022016 8 0 6.4 11.3 0.00 0.00 0.00 44 1006.8
20260505021016 8 315 8.0 12.9 0.00 0.00 0.00 43 1006.7
20260505020036 8 315 9.7 12.9 0.00 0.00 0.00 42 1006.5
20260505015016 8 0 12.9 16.1 0.00 0.00 0.00 42 1006.4
20260505014016 9 315 11.3 17.7 0.00 0.00 0.00 43 1006.4
20260505013016 9 338 17.7 25.7 0.00 0.00 0.00 43 1006.2
20260505012016 10 0 19.3 27.4 0.00 0.00 0.00 42 1006.1
20260505011016 10 338 20.9 29.0 0.00 0.00 0.00 41 1005.8
20260505010016 10 338 19.3 35.4 0.00 0.00 0.00 44 1005.6
20260505005016 10 0 22.5 35.4 0.00 0.00 0.00 42 1005.3
20260505004016 11 338 22.5 32.2 0.00 0.00 0.00 41 1005.0
20260505003016 11 338 22.5 33.8 0.00 0.00 0.00 40 1004.9
20260505002016 11 315 19.3 33.8 0.00 0.00 0.00 39 1004.7
20260505001016 11 315 25.7 38.6 0.00 0.00 0.00 38 1004.5
20260505000016 12 338 25.7 37.0 0.00 0.00 0.00 38 1004.5
20260504235016 12 315 19.3 30.6 0.00 0.00 0.00 40 1004.6
20260504234016 12 315 25.7 33.8 0.00 0.00 0.00 39 1004.3
20260504233016 12 315 20.9 30.6 0.00 0.00 0.00 40 1004.4
20260504232016 12 0 27.4 40.2 0.00 0.00 0.00 40 1004.2
20260504231036 12 315 25.7 38.6 0.00 0.00 0.00 40 1003.9
20260504230016 13 338 27.4 37.0 0.00 0.00 0.00 39 1003.9
20260504225016 12 315 27.4 40.2 0.00 0.00 0.00 39 1003.8
20260504224016 13 315 29.0 40.2 0.00 0.00 0.00 39 1003.7
20260504223016 14 0 25.7 37.0 0.00 0.00 0.00 38 1003.3
20260504222016 14 315 27.4 41.8 0.00 0.00 0.00 38 1003.1
20260504221016 14 315 25.7 41.8 0.00 0.00 0.00 37 1003.2
20260504220016 14 338 29.0 38.6 0.00 0.00 0.00 37 1002.9
20260504215016 14 338 27.4 49.9 0.00 0.00 0.00 38 1002.7
20260504214016 14 315 29.0 40.2 0.00 0.00 0.00 38 1002.3
20260504213016 15 315 27.4 45.1 0.00 0.00 0.00 36 1002.2
20260504212016 15 0 25.7 41.8 0.00 0.00 0.00 37 1002.1
20260504211016 15 315 22.5 43.5 0.00 0.00 0.00 37 1002.2
20260504210016 15 338 27.4 40.2 0.00 0.00 0.00 35 1002.1
20260504205016 15 338 25.7 38.6 0.00 0.00 0.00 36 1002.2
20260504204016 15 315 24.1 32.2 0.00 0.00 0.00 35 1002.1
20260504203015 15 315 27.4 41.8 0.00 0.00 0.00 36 1002.0
20260504202036 15 315 29.0 43.5 0.00 0.00 0.00 34 1002.1
20260504201015 16 315 19.3 25.7 0.00 0.00 0.00 37 1002.2
20260504200035 15 315 25.7 37.0 0.00 0.00 0.00 35 1001.9
20260504195036 15 338 27.4 40.2 0.00 0.00 0.00 35 1001.6
20260504194015 15 315 19.3 30.6 0.00 0.00 0.00 37 1001.7
20260504193015 15 315 24.1 33.8 0.00 0.00 0.00 39 1001.8
20260504192015 13 315 20.9 35.4 0.00 0.00 0.00 41 1001.8
20260504191015 14 293 25.7 35.4 0.00 0.00 0.00 39 1001.5
20260504190016 15 315 27.4 37.0 0.00 0.00 0.00 37 1001.5
20260504185036 15 315 27.4 41.8 0.00 0.00 0.00 34 1001.4
20260504184035 15 315 32.2 43.5 0.00 0.00 0.00 32 1001.3
20260504183015 16 293 30.6 48.3 0.00 0.00 0.00 31 1001.0
20260504182036 16 315 29.0 43.5 0.00 0.00 0.00 31 1001.0